Youngstown, OH

10:22 PM EST on December 12, 2017 (GMT -0500)
Youngstown-Warren Regional

Weather History for KYNG - June, 2014

Change the Weather History Date:

Thursday, June 19, 2014

  Actual Average Record
Temperature  
Mean Temperature 71 °F 68 °F  
Max Temperature 80 °F 79 °F 94 °F (1994)
Min Temperature 61 °F 57 °F 44 °F (1999)
Degree Days  
Heating Degree Days 0 2  
Month to date heating degree days 28 57  
Since 1 June heating degree days 28 57  
Since 1 July heating degree days 6855 6337  
Cooling Degree Days 6 4  
Month to date cooling degree days 74 55  
Year to date cooling degree days 129 94  
Since 1 June cooling degree days 74 55  
Growing Degree Days 21 (Base 50)    
Moisture  
Dew Point 64 °F    
Average Humidity 80    
Maximum Humidity 100    
Minimum Humidity 60    
Precipitation  
Precipitation 0.40 in 0.12 in 1.15 in (1964)
Month to date precipitation 2.65 2.44  
Year to date precipitation 17.74 17.23  
Snow  
Snow 0.00 in 0.00 in - ()
Month to date snowfall 0.0 0.0  
Since 1 June snowfall 0.0 0.0  
Since 1 July snowfall 90.1 62.7  
Snow Depth 0.00 in    
Sea Level Pressure  
Sea Level Pressure 30.06 in    
Wind  
Wind Speed 6 mph (ENE)    
Max Wind Speed 15 mph    
Max Gust Speed 18 mph    
Visibility 6 miles    
Events Rain    
T = Trace of Precipitation, MM = Missing Value Source: NWS Daily Summary

Daily Weather History Graph

Daily Weather History Graph

Search for Another Location

Airport or City:

Trip Planner

Search our weather history database for the weather conditions in past years. The results will help you decide how hot, cold, wet, or windy it might be!

Date:

Astronomy

Jun. 19, 2014 Rise Set
Actual Time 5:49 AM EDT 8:58 PM EDT
Civil Twilight 5:15 AM EDT 9:32 PM EDT
Nautical Twilight 4:32 AM EDT 10:16 PM EDT
Astronomical Twilight 3:40 AM EDT 11:07 PM EDT
Moon 12:57 AM EDT (6/19) 1:22 PM EDT (6/19)
Length of Visible Light 16h 17m
Length of Day
15h 09m
Waning Gibbous, 51% of the Moon is Illuminated
Jun 19
Waning Gibbous
Jun 19
Last Quarter
Jun 27
New
Jul 5
First Quarter
Jul 12
Full

Hourly Weather History & Observations

Time (EDT) Temp. Dew Point Humidity Pressure Visibility Wind Dir Wind Speed Gust Speed Precip Events Conditions
12:51 AM 66.0 °F 64.0 °F 93% 30.01 in 10.0 mi South 6.9 mph - N/A   Mostly Cloudy
1:51 AM 64.0 °F 63.0 °F 96% 30.02 in 6.0 mi SW 3.5 mph - N/A   Mostly Cloudy
2:51 AM 64.9 °F 64.0 °F 97% 30.00 in 6.0 mi Calm Calm - N/A   Overcast
3:38 AM 64.4 °F 62.6 °F 94% 30.01 in 1.5 mi East 3.5 mph - 0.00 in   Overcast
3:51 AM 64.0 °F 63.0 °F 96% 29.99 in 1.0 mi ESE 4.6 mph - 0.00 in Rain Light Rain
4:34 AM 64.4 °F 64.4 °F 100% 30.04 in 1.0 mi West 3.5 mph - 0.00 in Rain Light Rain
4:51 AM 64.9 °F 64.0 °F 97% 30.02 in 1.0 mi SSW 3.5 mph - 0.00 in Rain Light Rain
5:39 AM 66.2 °F 64.4 °F 94% 30.04 in 1.5 mi South 4.6 mph - N/A Rain Light Rain
5:51 AM 66.2 °F 64.4 °F 94% 30.04 in 1.5 mi South 5.8 mph - N/A Rain Light Rain
6:51 AM 66.9 °F 64.9 °F 93% 30.01 in 1.5 mi Calm Calm - 0.06 in Rain Light Rain
7:36 AM 66.2 °F 66.2 °F 100% 30.05 in 1.5 mi Calm Calm - 0.04 in Rain Light Rain
7:51 AM 66.9 °F 66.0 °F 97% 30.04 in 2.0 mi East 3.5 mph - 0.04 in Rain Light Rain
8:24 AM 66.2 °F 66.2 °F 100% 30.06 in 1.0 mi Calm Calm - 0.00 in Rain Light Rain
8:31 AM 66.2 °F 66.2 °F 100% 30.06 in 0.5 mi ESE 4.6 mph - 0.01 in Rain Light Rain
8:51 AM 66.9 °F 66.0 °F 97% 30.04 in 0.5 mi SE 3.5 mph - 0.02 in Rain Light Rain
8:59 AM 66.2 °F 66.2 °F 100% 30.06 in 0.5 mi SE 4.6 mph - 0.01 in Rain Light Rain
9:31 AM 66.2 °F 66.2 °F 100% 30.06 in 1.0 mi East 3.5 mph - 0.05 in Rain Light Rain
9:51 AM 66.2 °F 66.2 °F 100% 30.07 in 1.0 mi East 3.5 mph - N/A Rain Light Rain
10:12 AM 68.0 °F 66.2 °F 94% 30.07 in 0.8 mi Calm Calm - 0.04 in Rain Light Rain
10:29 AM 68.0 °F 66.2 °F 94% 30.07 in 0.8 mi NNE 3.5 mph - 0.06 in Rain Light Rain
10:51 AM 66.9 °F 66.0 °F 97% 30.06 in 0.8 mi NE 10.4 mph - 0.11 in Rain Rain
11:25 AM 69.8 °F 66.2 °F 88% 30.08 in 3.0 mi NE 11.5 mph - 0.02 in Rain Light Rain
11:51 AM 69.1 °F 66.0 °F 90% 30.07 in 10.0 mi NE 13.8 mph - 0.02 in   Overcast
12:51 PM 70.0 °F 64.9 °F 84% 30.09 in 10.0 mi NNE 11.5 mph - N/A   Overcast
1:41 PM 71.6 °F 64.4 °F 78% 30.11 in 10.0 mi NE 8.1 mph - N/A   Overcast
1:51 PM 72.0 °F 64.9 °F 78% 30.09 in 10.0 mi NE 9.2 mph - N/A   Overcast
2:05 PM 73.4 °F 66.2 °F 78% 30.10 in 10.0 mi NNE 9.2 mph - N/A   Mostly Cloudy
2:51 PM 75.9 °F 64.9 °F 69% 30.07 in 10.0 mi NE 13.8 mph 18.4 mph N/A   Mostly Cloudy
3:51 PM 75.9 °F 64.9 °F 69% 30.09 in 10.0 mi NE 10.4 mph - N/A   Mostly Cloudy
4:35 PM 77.0 °F 62.6 °F 61% 30.09 in 10.0 mi ENE 4.6 mph - N/A   Mostly Cloudy
4:51 PM 77.0 °F 63.0 °F 62% 30.08 in 10.0 mi NNE 4.6 mph - N/A   Mostly Cloudy
5:51 PM 73.9 °F 64.0 °F 71% 30.07 in 10.0 mi NE 6.9 mph - N/A   Mostly Cloudy
6:51 PM 75.0 °F 64.9 °F 71% 30.06 in 10.0 mi North 9.2 mph - N/A   Overcast
7:51 PM 73.0 °F 61.0 °F 66% 30.08 in 10.0 mi NNE 8.1 mph - N/A   Overcast
8:51 PM 70.0 °F 59.0 °F 68% 30.10 in 10.0 mi North 6.9 mph - N/A   Mostly Cloudy
9:51 PM 66.0 °F 57.0 °F 73% 30.10 in 10.0 mi North 4.6 mph - N/A   Mostly Cloudy
10:51 PM 62.6 °F 55.4 °F 77% 30.13 in 10.0 mi NNE 3.5 mph - N/A   Mostly Cloudy
11:51 PM 61.0 °F 55.9 °F 83% 30.11 in 10.0 mi Calm Calm - N/A   Mostly Cloudy